Location: Proctor
(47.8934°N, 114.3048°W)
Time: 12:17:30
(UTC+00:00)

AIST 2D - Pass Details

Date: 03 July 2022
Orbit: 433 x 444 km, 97.0° (Epoch: 10 August)

Event Time Altitude Azimuth Distance (km) Brightness Sun altitude
Rises 05:19:43 0° 12° (NNE) 2,428 ? -12.3°
Reaches altitude 10° 05:21:44 10° 12° (NNE) 1,555 ? -12.5°
Maximum altitude 05:25:04 87° 283° (WNW) 445 ? -12.8°
Enters shadow 05:27:51 14° 195° (SSW) 1,322 ? -13.1°
